• In Hungary
  • List of Countries
  • For 7 days
  • Water Temperature
  • Satellite Maps
  • Weather Map
  • News
  • Weather Widgets
  • user-avatar
    Login

    Hourly Weather Barra

    Today, 20 June, Wednesday

    Time Temperature Precipitation Wind Pressure Humidity
    00:00 +12°C° 0 mm 2 mps 754 mmHg 61%
    01:00 +12°C° 0 mm 2 mps 754 mmHg 61%
    02:00 +12°C° 0 mm 2 mps 754 mmHg 60%
    03:00 +11°C° 0 mm 3 mps 754 mmHg 59%
    04:00 +11°C° 0 mm 3 mps 754 mmHg 61%
    05:00 +11°C° 0 mm 3 mps 754 mmHg 60%
    06:00 +10°C° 0 mm 3 mps 754 mmHg 59%
    07:00 +10°C° 0 mm 3 mps 754 mmHg 59%
    08:00 +14°C° 0 mm 3 mps 754 mmHg 53%
    09:00 +18°C° 0 mm 3 mps 754 mmHg 47%
    10:00 +21°C° 0 mm 3 mps 754 mmHg 41%
    11:00 +22°C° 0 mm 3 mps 754 mmHg 39%
    12:00 +24°C° 0 mm 3 mps 753 mmHg 37%
    13:00 +24°C° 0 mm 3 mps 753 mmHg 36%
    14:00 +24°C° 0 mm 3 mps 753 mmHg 38%
    15:00 +22°C° 0 mm 3 mps 752 mmHg 41%
    16:00 +22°C° 0 mm 3 mps 752 mmHg 44%
    17:00 +19°C° 0 mm 3 mps 752 mmHg 54%
    18:00 +17°C° 0 mm 2 mps 753 mmHg 64%
    19:00 +14°C° 0 mm 2 mps 753 mmHg 75%
    20:00 +14°C° 0 mm 2 mps 753 mmHg 77%
    21:00 +14°C° 0 mm 2 mps 754 mmHg 79%
    22:00 +13°C° 0 mm 2 mps 754 mmHg 81%
    23:00 +13°C° 0 mm 2 mps 754 mmHg 82%

    Tomorrow, 21 June, Thursday

    Time Temperature Precipitation Wind Pressure Humidity
    00:00 +13°C° 0 mm 2 mps 754 mmHg 84%
    01:00 +13°C° 0 mm 2 mps 754 mmHg 85%
    02:00 +13°C° 0 mm 2 mps 753 mmHg 86%
    03:00 +12°C° 0 mm 2 mps 753 mmHg 87%
    04:00 +12°C° 0 mm 2 mps 753 mmHg 88%
    05:00 +12°C° 0 mm 3 mps 753 mmHg 90%
    06:00 +12°C° 0 mm 3 mps 753 mmHg 91%
    07:00 +12°C° 0 mm 3 mps 754 mmHg 92%
    08:00 +16°C° 0 mm 3 mps 754 mmHg 82%
    09:00 +18°C° 0 mm 3 mps 754 mmHg 73%
    10:00 +21°C° 0 mm 4 mps 754 mmHg 63%
    11:00 +22°C° 0 mm 4 mps 754 mmHg 61%
    12:00 +22°C° 0 mm 4 mps 753 mmHg 59%
    13:00 +23°C° 0 mm 4 mps 753 mmHg 57%
    14:00 +23°C° 0 mm 4 mps 752 mmHg 59%
    15:00 +22°C° 0 mm 3 mps 752 mmHg 61%
    16:00 +22°C° 0 mm 3 mps 752 mmHg 62%
    17:00 +20°C° 0 mm 3 mps 752 mmHg 71%
    18:00 +18°C° 0 mm 3 mps 753 mmHg 79%
    19:00 +16°C° 0 mm 2 mps 753 mmHg 87%
    20:00 +16°C° 0 mm 2 mps 753 mmHg 89%
    21:00 +16°C° 0 mm 3 mps 754 mmHg 90%
    22:00 +16°C° 0 mm 3 mps 754 mmHg 91%
    23:00 +16°C° 0 mm 3 mps 754 mmHg 92%

    Day after tomorrow, 22 June, Friday

    Time Temperature Precipitation Wind Pressure Humidity
    00:00 +16°C° 0 mm 3 mps 754 mmHg 93%
    01:00 +14°C° 0 mm 3 mps 754 mmHg 94%
    02:00 +16°C° 0 mm 3 mps 753 mmHg 94%
    03:00 +16°C° 0 mm 3 mps 753 mmHg 94%
    04:00 +16°C° 0 mm 3 mps 752 mmHg 94%
    05:00 +16°C° 0 mm 3 mps 753 mmHg 95%
    06:00 +16°C° 0 mm 3 mps 753 mmHg 95%
    07:00 +16°C° 0 mm 3 mps 753 mmHg 95%
    08:00 +18°C° 0.1 mm 3 mps 753 mmHg 89%
    09:00 +20°C° 0.1 mm 3 mps 754 mmHg 83%
    10:00 +21°C° 0.1 mm 3 mps 754 mmHg 77%
    11:00 +22°C° 0.1 mm 4 mps 753 mmHg 74%
    12:00 +23°C° 0.1 mm 4 mps 753 mmHg 70%
    13:00 +25°C° 0.1 mm 4 mps 752 mmHg 66%
    14:00 +25°C° 0.1 mm 4 mps 752 mmHg 66%
    15:00 +25°C° 0.1 mm 4 mps 752 mmHg 66%
    16:00 +25°C° 0.1 mm 4 mps 752 mmHg 66%
    17:00 +22°C° 0.1 mm 3 mps 752 mmHg 75%
    18:00 +20°C° 0.1 mm 3 mps 752 mmHg 84%
    19:00 +19°C° 0.1 mm 3 mps 753 mmHg 93%
    20:00 +18°C° 0.1 mm 3 mps 753 mmHg 94%
    21:00 +18°C° 0.1 mm 3 mps 753 mmHg 95%
    22:00 +18°C° 0.1 mm 3 mps 754 mmHg 97%
    23:00 +19°C° 0.2 mm 3 mps 753 mmHg 97%

    23 June, Saturday

    Time Temperature Precipitation Wind Pressure Humidity
    00:00 +19°C° 0.2 mm 3 mps 753 mmHg 97%
    01:00 +19°C° 0.2 mm 3 mps 753 mmHg 97%
    02:00 +19°C° 0.3 mm 4 mps 752 mmHg 97%
    03:00 +19°C° 0.3 mm 4 mps 752 mmHg 97%
    04:00 +19°C° 0.3 mm 4 mps 752 mmHg 97%
    05:00 +19°C° 0.3 mm 4 mps 752 mmHg 97%
    06:00 +19°C° 0.3 mm 5 mps 752 mmHg 97%
    07:00 +19°C° 0.3 mm 5 mps 753 mmHg 97%
    08:00 +20°C° 0.2 mm 5 mps 753 mmHg 95%
    09:00 +20°C° 0.2 mm 5 mps 753 mmHg 94%
    10:00 +20°C° 0.2 mm 5 mps 754 mmHg 92%
    11:00 +21°C° 0.2 mm 5 mps 753 mmHg 90%
    12:00 +21°C° 0.2 mm 5 mps 753 mmHg 88%
    13:00 +21°C° 0.2 mm 5 mps 752 mmHg 86%
    14:00 +22°C° 0.1 mm 5 mps 752 mmHg 83%
    15:00 +22°C° 0.1 mm 5 mps 752 mmHg 81%
    16:00 +22°C° 0.1 mm 5 mps 752 mmHg 78%
    17:00 +21°C° 0.1 mm 5 mps 752 mmHg 83%
    18:00 +20°C° 0.1 mm 5 mps 752 mmHg 89%
    19:00 +19°C° 0.1 mm 4 mps 753 mmHg 95%
    20:00 +19°C° 0.1 mm 4 mps 753 mmHg 95%
    21:00 +19°C° 0.1 mm 4 mps 753 mmHg 96%
    22:00 +19°C° 0.1 mm 5 mps 754 mmHg 96%
    23:00 +19°C° 0.2 mm 5 mps 754 mmHg 96%

    24 June, Sunday

    Time Temperature Precipitation Wind Pressure Humidity
    00:00 +19°C° 0.2 mm 5 mps 753 mmHg 96%
    01:00 +19°C° 0.2 mm 5 mps 753 mmHg 96%
    02:00 +19°C° 0.3 mm 5 mps 753 mmHg 96%
    03:00 +19°C° 0.3 mm 5 mps 752 mmHg 96%
    04:00 +19°C° 0.3 mm 5 mps 752 mmHg 96%
    05:00 +19°C° 0.4 mm 5 mps 752 mmHg 96%
    06:00 +19°C° 0.4 mm 5 mps 753 mmHg 96%
    07:00 +19°C° 0.4 mm 5 mps 753 mmHg 96%
    08:00 +19°C° 0.4 mm 5 mps 753 mmHg 95%
    09:00 +20°C° 0.4 mm 5 mps 753 mmHg 94%
    10:00 +20°C° 0.4 mm 6 mps 754 mmHg 93%
    11:00 +20°C° 0.3 mm 5 mps 753 mmHg 92%
    12:00 +20°C° 0.3 mm 5 mps 753 mmHg 91%
    13:00 +21°C° 0.3 mm 5 mps 752 mmHg 90%
    14:00 +21°C° 0.2 mm 5 mps 752 mmHg 90%
    15:00 +21°C° 0.2 mm 5 mps 752 mmHg 89%
    16:00 +21°C° 0.2 mm 5 mps 751 mmHg 89%
    17:00 +20°C° 0.2 mm 5 mps 752 mmHg 91%
    18:00 +20°C° 0.2 mm 5 mps 753 mmHg 93%
    19:00 +19°C° 0.2 mm 5 mps 753 mmHg 95%
    20:00 +19°C° 0.3 mm 5 mps 753 mmHg 95%
    21:00 +19°C° 0.3 mm 5 mps 754 mmHg 95%
    22:00 +19°C° 0.3 mm 6 mps 754 mmHg 95%
    23:00 +19°C° 0.3 mm 5 mps 754 mmHg 95%

    25 June, Monday

    Time Temperature Precipitation Wind Pressure Humidity
    00:00 +19°C° 0.3 mm 5 mps 753 mmHg 95%
    01:00 +19°C° 0.3 mm 5 mps 753 mmHg 95%
    02:00 +19°C° 0.3 mm 5 mps 753 mmHg 95%
    03:00 +19°C° 0.3 mm 5 mps 753 mmHg 95%
    04:00 +19°C° 0.3 mm 5 mps 753 mmHg 96%
    05:00 +19°C° 0.2 mm 5 mps 753 mmHg 96%
    06:00 +19°C° 0.2 mm 5 mps 753 mmHg 96%
    07:00 +19°C° 0.2 mm 5 mps 754 mmHg 96%
    08:00 +19°C° 0.2 mm 5 mps 754 mmHg 93%
    09:00 +20°C° 0.2 mm 5 mps 754 mmHg 90%
    10:00 +21°C° 0.2 mm 5 mps 754 mmHg 87%
    11:00 +21°C° 0.1 mm 5 mps 754 mmHg 83%
    12:00 +22°C° 0.1 mm 5 mps 753 mmHg 79%
    13:00 +22°C° 0.1 mm 5 mps 753 mmHg 75%
    14:00 +22°C° 0 mm 5 mps 753 mmHg 74%
    15:00 +22°C° 0 mm 5 mps 752 mmHg 73%
    16:00 +22°C° 0 mm 5 mps 752 mmHg 72%
    17:00 +21°C° 0 mm 5 mps 753 mmHg 77%
    18:00 +20°C° 0 mm 5 mps 753 mmHg 82%
    19:00 +19°C° 0 mm 5 mps 753 mmHg 87%
    20:00 +19°C° 0 mm 5 mps 754 mmHg 88%
    21:00 +19°C° 0 mm 5 mps 754 mmHg 90%
    22:00 +19°C° 0 mm 5 mps 754 mmHg 91%
    23:00 +19°C° 0.1 mm 5 mps 754 mmHg 92%
    Show more